CAPE
1681 1802 1843 1895 1905 2026 1822 2021 2099 1985 2015 1842 1706 1767 1682 2146 2352 2271 1871 1382 1426 1129 492 220 442 101 0 0 0 0 0 0 0 0 0 12 77 86 11 36 67 52 2
1693 1917 1758 1834 1929 1829 1987 2000 2105 2107 2254 2189 2149 2034 1672 1879 2235 2301 2072 1463 1485 1233 904 440 382 301 236 57 6 10 0 0 0 0 0 0 73 87 180 301 86 0 0
1616 1663 1805 1821 1804 1781 1962 2045 2105 2131 2236 2139 2289 2285 2008 1700 2026 2202 2133 1931 1608 1463 1120 831 459 331 295 16 33 0 8 20 10 0 0 41 0 36 136 165 37 2 39
1309 1503 1747 1972 1786 1937 2044 2151 2205 2290 2368 2315 2356 2529 2363 2053 1780 1815 1958 2038 1977 1659 1443 1121 794 331 284 293 151 139 28 5 47 12 0 0 10 22 50 0 74 138 27
1379 1511 1706 1957 2163 2213 2153 2238 2348 2388 2421 2443 2398 2431 2394 2210 1669 1960 1997 1900 2173 2015 1736 1394 1026 723 335 387 158 244 216 140 0 56 21 0 0 25 71 0 56 24 66
1410 1536 1751 2046 2284 2265 2303 2284 2415 2404 2504 2534 2441 2433 2243 2081 1594 1193 1976 1949 2101 2210 2091 1686 1381 856 647 272 195 167 426 453 204 9 41 18 42 88 51 90 0 50 67
1352 1635 1839 2046 2255 2369 2387 2389 2523 2565 2561 2574 2457 2468 2452 2450 1586 1145 1138 1794 1966 2290 2289 2099 1715 1368 993 945 237 55 53 222 249 397 286 202 127 354 346 384 13 37 112
1499 1584 1950 2051 2160 2391 2462 2365 2515 2642 2584 2752 2647 2601 2607 2689 2051 1237 1054 1454 1952 2340 2369 2275 2127 1827 1577 1223 1155 496 193 239 200 170 464 617 633 667 618 330 192 203 149
1600 1601 1868 2098 2226 2357 2457 2447 2498 2473 2498 2520 2627 2617 2637 2687 2138 1491 1130 1462 1620 2120 2382 2449 2277 2162 1951 988 1139 1114 664 281 207 115 109 282 511 382 340 260 92 70 22
1545 1674 1951 2149 2320 2389 2536 2514 2463 2419 2375 2327 2445 2518 2613 2727 2494 1579 1083 1524 1586 1753 2243 2456 2006 2194 1882 999 913 895 548 366 405 332 133 65 96 62 0 110 17 19 31
1665 1845 2038 2212 2519 2428 2563 2571 2522 2433 2340 2344 2268 2182 2218 2482 2599 1813 1369 1561 1531 1799 1962 2191 2175 1410 1312 929 762 754 677 644 524 553 250 139 198 203 6 7 54 4 0
1717 1813 2105 2466 2359 2282 2567 2615 2579 2643 2527 2568 2419 2079 1687 2036 2121 1618 1089 1093 1480 1560 1899 1841 1975 1446 746 624 399 555 431 545 581 283 201 169 96 20 0 7 0 0 0
1901 2058 2357 2627 2644 2344 2725 2713 2628 2687 2379 2516 2547 2218 1577 2267 1886 845 13 4 811 1033 1649 1932 1466 643 175 80 1 200 310 411 395 213 141 77 3 7 1 0 0 0 0
1891 2269 2655 2921 2913 2754 2741 2812 2680 2562 2568 2430 2323 2329 1880 1526 1052 1080 481 357 620 670 127 313 235 19 1 0 0 112 217 203 237 192 165 95 24 3 0 0 0 0 0
2473 2701 2859 2933 2876 3090 2922 2196 2797 2674 1853 2285 2358 2338 2427 2460 2490 2167 1241 928 676 253 6 31 45 2 18 16 0 1 28 36 89 101 180 58 2 0 0 0 0 0 0
2431 2470 2494 2659 2871 2821 2504 1470 24 332 862 1391 2016 2469 2932 1758 2054 1827 1325 964 488 59 11 18 21 7 4 5 3 2 22 37 138 109 78 6 0 0 0 0 0 0 0
2147 1865 1743 1928 2095 2198 2057 1101 1409 326 17 45 26 70 472 944 996 604 104 5 0 0 2 3 1 3 6 3 4 2 29 55 40 20 5 0 0 0 0 0 0 0 0
1408 1210 1669 1796 1820 1597 1420 1110 689 360 157 0 0 0 0 0 0 0 0 0 1 0 2 0 3 4 6 6 2 1 17 13 11 1 0 0 0 0 0 0 0 0 0
1116 1001 1164 1083 1079 906 663 414 150 1 0 0 0 0 0 0 0 0 0 2 0 0 16 19 40 5 19 16 3 1 1 0 2 0 0 0 0 1 0 0 0 0 0
345 239 314 409 330 298 144 49 6 125 233 0 2 1 0 0 0 0 1 1 0 0 1 15 26 2 6 2 0 0 0 1 0 0 0 0 1 0 0 0 0 0 0
400 240 157 454 391 462 471 342 236 48 3 1 3 1 0 0 0 0 0 9 12 9 31 23 2 1 1 2 0 0 0 0 0 0 3 2 0 0 0 0 0 0 0
427 332 138 85 102 78 28 1 1 1 1 2 2 2 0 8 4 3 4 9 4 1 1 5 2 4 1 0 0 0 0 0 0 1 1 0 0 0 0 0 0 0 0
378 446 292 188 86 20 49 57 21 1 2 0 1 2 2 3 3 2 1 0 0 2 15 35 48 5 1 0 0 0 0 0 0 0 0 0 0 0 0 0 0 0 0
169 163 125 81 63 37 23 16 6 0 2 3 2 0 59 48 51 18 15 15 11 7 2 1 0 0 0 0 0 0 0 0 0 0 0 0 0 0 0 0 0 0 0
4 7 43 47 8 23 60 30 38 33 84 49 38 18 12 15 15 4 1 0 0 0 0 0 0 0 0 0 0 0 0 0 0 0 0 0 0 0 0 0 0 0 0
0 0 0 0 0 0 2 5 9 5 7 0 0 0 3 0 12 26 1 0 0 0 0 0 0 0 0 0 0 0 0 0 0 0 0 0 0 0 0 0 0 0 0
CIN
-236 -208 -180 -177 -154 -140 -109 -79 -65 -47 -30 -26 -10 -13 -9 -2 -5 -10 -29 -54 -78 -98 -144 -194 -163 -230 -0 -20 -0 -0 -0 -0 -0 -0 -0 -55 -68 -59 -124 -154 -102 -107 -1
-264 -260 -249 -218 -173 -158 -150 -113 -94 -78 -55 -40 -22 -15 -22 -7 -6 -11 -34 -77 -93 -121 -132 -192 -222 -242 -264 -261 -275 -235 -0 -0 -0 -0 -0 -0 -109 -74 -16 -2 -49 -0 -0
-317 -292 -274 -263 -238 -224 -186 -163 -127 -118 -87 -68 -46 -30 -32 -52 -34 -38 -50 -64 -99 -107 -127 -166 -246 -268 -269 -130 -186 -0 -260 -254 -191 -0 -21 -127 -34 -103 -14 -25 -91 -22 -59
-307 -331 -335 -322 -322 -289 -237 -211 -178 -150 -122 -103 -70 -54 -49 -68 -88 -96 -93 -85 -84 -96 -118 -157 -202 -295 -277 -275 -297 -271 -288 -250 -235 -219 -0 -0 -144 -119 -66 -0 -14 -25 -90
-299 -327 -363 -388 -347 -303 -284 -252 -225 -174 -155 -129 -103 -79 -63 -65 -115 -124 -115 -125 -96 -97 -117 -148 -176 -203 -280 -268 -302 -271 -245 -245 -0 -221 -208 -0 -0 -101 -74 -17 -25 -16 -43
-317 -352 -360 -390 -357 -344 -330 -311 -255 -231 -189 -158 -129 -118 -127 -110 -157 -222 -156 -144 -141 -111 -96 -122 -137 -212 -248 -340 -368 -323 -218 -176 -213 -299 -222 -180 -118 -81 -44 -9 -0 -34 -44
-430 -389 -396 -411 -396 -374 -325 -272 -248 -213 -184 -191 -194 -158 -150 -144 -195 -270 -283 -192 -164 -118 -103 -104 -106 -115 -198 -190 -412 -426 -394 -300 -216 -108 -96 -56 -55 -10 -1 -3 -30 -47 -23
-464 -414 -421 -438 -435 -380 -360 -386 -342 -268 -237 -196 -195 -173 -144 -137 -210 -303 -307 -242 -158 -107 -110 -97 -91 -90 -118 -162 -130 -276 -355 -349 -331 -224 -51 -5 -1 -2 -0 -1 -9 -1 -8
-488 -483 -467 -443 -440 -418 -428 -429 -286 -244 -214 -164 -104 -105 -107 -106 -170 -287 -324 -230 -199 -125 -110 -130 -119 -104 -90 -233 -149 -114 -200 -279 -186 -210 -174 -62 -13 -16 -5 -1 -9 -28 -1
-470 -471 -484 -454 -445 -451 -400 -335 -298 -260 -226 -193 -178 -148 -117 -92 -83 -204 -264 -142 -162 -191 -135 -82 -105 -97 -121 -201 -149 -93 -167 -216 -115 -107 -121 -154 -81 -116 -0 -30 -2 -3 -1
-442 -456 -464 -448 -434 -402 -355 -340 -317 -294 -248 -259 -268 -311 -316 -169 -131 -269 -285 -213 -221 -145 -154 -68 -49 -186 -185 -241 -183 -98 -117 -69 -47 -17 -92 -86 -23 -1 -166 -36 -26 -0 -0
-440 -443 -443 -463 -438 -426 -385 -342 -306 -254 -256 -268 -302 -334 -279 -297 -382 -448 -481 -398 -165 -65 -56 -108 -79 -278 -332 -236 -195 -110 -81 -51 -14 -63 -83 -15 -13 -34 -0 -22 -0 -0 -0
-477 -465 -437 -410 -410 -408 -376 -316 -296 -256 -269 -274 -284 -356 -310 -289 -407 -557 -513 -117 -263 -75 -21 -3 -87 -278 -188 -251 -18 -112 -78 -32 -6 -100 -90 -14 -51 -31 -1 -0 -0 -0 -0
-498 -457 -414 -385 -368 -384 -358 -289 -270 -265 -240 -224 -233 -232 -224 -243 -383 -390 -681 -562 -332 -192 -491 -316 -361 -433 -0 -0 -0 -46 -38 -53 -23 -25 -85 -19 -15 -3 -0 -0 -0 -0 -0
-407 -390 -379 -346 -364 -306 -267 -386 -230 -206 -307 -223 -199 -159 -133 -124 -134 -217 -353 -314 -309 -424 -639 -553 -510 -225 -501 -94 -0 -35 -131 -39 -19 -18 -30 -6 -1 -0 -0 -0 -0 -0 -0
-358 -329 -309 -306 -305 -290 -327 -522 -1084 -888 -653 -451 -291 -186 -96 -306 -221 -249 -282 -276 -374 -587 -351 -471 -408 -125 -107 -328 -131 -1 -7 -74 -11 -6 -11 -44 -0 -0 -0 -0 -0 -0 -0
-369 -453 -459 -392 -331 -289 -299 -502 -407 -710 -944 -860 -898 -833 -565 -383 -342 -454 -722 -22 -0 -0 -0 -0 -0 -0 -11 -14 -14 -0 -16 -46 -3 -26 -80 -0 -0 -0 -0 -0 -0 -0 -0
-488 -530 -377 -322 -278 -286 -302 -355 -424 -501 -563 -0 -0 -0 -0 -0 -0 -0 -0 -0 -0 -0 -0 -0 -0 -0 -0 -0 -0 -2 -38 -17 -30 -77 -0 -0 -0 -0 -0 -0 -0 -0 -0
-415 -441 -392 -396 -358 -352 -358 -374 -434 -158 -0 -0 -0 -0 -0 -0 -0 -0 -0 -0 -0 -0 -13 -21 -12 -0 -32 -9 -0 -5 -0 -0 -17 -0 -0 -0 -0 -1 -1 -0 -0 -0 -0
-511 -535 -474 -417 -441 -410 -416 -486 -489 -316 -251 -0 -0 -1 -0 -0 -0 -0 -0 -0 -0 -0 -0 -25 -14 -57 -11 -5 -0 -0 -1 -1 -0 -0 -0 -0 -1 -0 -0 -0 -0 -0 -0
-312 -382 -411 -261 -238 -214 -173 -180 -232 -299 -0 -0 -0 -0 -0 -0 -0 -0 -0 -0 -48 -48 -45 -26 -0 -0 -0 -1 -0 -1 -0 -0 -0 -0 -2 -1 -0 -0 -0 -0 -0 -0 -0
-197 -198 -245 -269 -272 -255 -259 -23 -0 -0 -0 -0 -0 -0 -0 -0 -0 -0 -0 -0 -0 -0 -0 -58 -0 -7 -14 -0 -1 -0 -0 -0 -0 -1 -1 -0 -0 -0 -0 -0 -0 -0 -0
-50 -30 -100 -155 -186 -224 -164 -143 -158 -71 -0 -0 -0 -0 -0 -0 -0 -0 -0 -0 -0 -0 -1 -8 -22 -1 -1 -0 -0 -0 -0 -0 -0 -0 -0 -0 -0 -0 -0 -0 -0 -0 -0
-22 -25 -60 -68 -66 -45 -64 -9 -13 -0 -0 -0 -0 -0 -53 -45 -5 -9 -1 -16 -2 -1 -1 -0 -0 -0 -0 -0 -0 -0 -0 -0 -0 -0 -0 -0 -0 -0 -0 -0 -0 -0 -0
-2 -11 -18 -15 -38 -25 -2 -1 -8 -11 -3 -3 -1 -5 -4 -6 -20 -1 -2 -0 -0 -0 -0 -0 -0 -0 -0 -0 -0 -0 -0 -0 -0 -0 -0 -0 -0 -0 -0 -0 -0 -0 -0
-0 -0 -0 -0 -0 -0 -0 -0 -0 -28 -48 -0 -0 -0 -13 -0 -20 -7 -6 -0 -0 -0 -0 -0 -0 -0 -0 -0 -0 -0 -0 -0 -0 -0 -0 -0 -0 -0 -0 -0 -0 -0 -0
Wind_Speed
29 25 23 22 22 19 19 16 15 11 9 10 8 8 10 11 11 13 16 16 18 19 15 10 7 7 8 8 7 8 8 8 7 8 9 9 7 7 7 8 7 9 9
24 22 25 23 23 24 24 22 18 16 13 11 10 10 11 12 11 13 16 18 19 19 14 10 9 7 7 7 6 6 6 6 6 5 7 8 7 6 7 10 12 13 14
21 23 24 25 23 24 23 22 21 19 18 16 15 14 14 14 15 15 18 18 20 19 16 13 11 8 4 4 5 4 5 3 3 4 4 6 9 10 10 10 11 13 13
23 22 26 27 27 23 22 22 22 19 18 18 17 16 16 16 18 18 20 19 17 16 15 14 12 10 8 5 4 3 2 1 1 2 4 7 10 11 12 13 12 12 14
24 26 26 26 25 22 21 22 23 22 21 20 19 19 19 19 21 22 23 21 17 16 15 15 13 11 10 7 5 4 3 3 3 4 6 6 8 9 10 11 14 18 18
23 28 25 22 22 23 21 23 23 24 24 22 22 23 24 25 26 27 25 24 23 21 18 16 14 14 13 12 11 7 6 7 7 7 8 9 10 9 12 15 17 20 21
23 22 23 22 21 21 17 18 22 23 21 24 24 24 26 27 27 29 30 26 24 22 20 19 17 15 15 14 15 14 12 11 11 11 13 15 14 11 13 14 17 18 18
18 19 20 22 21 17 17 20 21 20 22 22 21 22 23 25 26 30 30 28 25 23 23 22 21 19 18 17 16 16 17 15 14 13 14 14 14 14 11 13 16 17 17
18 20 22 22 20 17 19 19 17 16 17 18 18 17 18 21 20 24 26 26 28 28 27 27 27 26 23 21 20 19 19 19 18 16 16 17 16 14 12 12 15 14 16
18 20 16 17 17 17 17 20 19 18 19 18 19 21 21 22 29 27 25 29 32 32 32 33 33 31 29 27 26 24 23 21 20 18 17 17 14 13 13 12 13 14 14
17 15 16 15 15 16 16 17 18 19 19 19 20 20 21 26 24 25 25 29 33 35 35 35 36 35 33 32 31 29 26 20 19 18 19 18 14 11 13 11 9 12 14
20 19 18 18 16 15 14 14 17 18 19 20 20 22 23 20 22 21 24 29 30 32 34 36 35 34 31 32 33 31 25 20 19 17 18 16 14 12 13 8 8 9 12
19 18 17 16 15 14 13 15 16 17 18 18 22 25 22 23 20 23 22 28 30 30 31 34 33 30 31 24 30 24 24 18 15 13 19 16 11 10 7 6 7 9 11
17 17 15 14 13 12 11 12 14 14 16 18 18 21 25 27 25 23 23 23 27 29 29 28 24 23 19 12 18 25 19 17 15 17 18 15 11 6 5 4 6 8 8
14 14 14 14 14 14 14 16 16 17 20 20 23 25 25 25 24 23 22 24 26 27 23 21 19 20 15 11 7 17 24 22 21 17 17 10 7 4 4 3 6 7 8
12 12 13 14 13 14 16 19 21 22 25 27 28 29 29 30 26 22 21 21 21 20 22 22 19 17 19 21 22 22 19 16 14 15 10 7 6 4 3 4 5 6 8
11 12 12 13 14 15 17 19 22 23 23 25 27 29 31 28 27 25 23 21 19 16 21 24 24 26 26 23 17 10 11 13 11 9 7 6 5 4 4 4 6 7 8
10 11 11 13 14 16 18 18 18 19 20 22 22 23 21 19 18 15 11 9 12 17 21 21 20 19 15 8 4 9 8 11 8 7 7 6 5 4 4 4 5 6 8
13 14 14 14 16 16 17 18 19 19 20 19 18 19 19 16 14 11 7 12 13 15 18 16 10 5 4 3 10 9 8 7 7 6 6 5 4 4 4 5 6 9 9
13 13 14 14 14 16 16 17 19 21 21 17 17 15 14 11 11 10 10 9 6 5 6 3 2 2 3 7 8 7 5 5 5 5 5 5 5 6 5 5 6 6 7
14 14 15 15 16 16 17 19 19 18 19 16 14 12 8 7 8 7 7 8 6 10 12 8 5 3 1 4 3 4 4 4 4 6 7 6 5 6 6 6 5 6 9
13 14 15 15 15 16 15 14 13 13 13 11 10 9 7 8 7 6 6 5 7 7 6 4 3 4 3 2 4 3 4 6 8 8 7 6 6 6 7 6 5 7 7
15 13 14 15 14 13 14 14 13 12 12 11 10 9 10 9 6 6 6 6 5 4 4 3 3 2 3 0 2 3 5 7 7 8 6 6 6 6 6 5 6 5 4
14 14 14 14 14 13 12 12 12 11 11 11 10 9 8 8 8 8 7 5 5 4 3 2 1 2 1 2 3 4 8 10 10 10 8 7 7 6 6 7 7 6 5
16 17 16 14 14 16 15 13 14 14 12 10 11 13 12 13 10 10 8 5 4 3 3 2 1 0 1 3 5 8 7 9 10 8 7 7 6 6 6 6 7 7 6
16 16 16 15 16 16 17 17 17 17 16 15 15 16 17 15 14 12 8 6 6 5 3 3 2 1 1 4 5 5 6 7 8 7 8 8 7 6 5 7 8 8 8
Wind_Direction
191 193 195 199 202 207 208 214 214 225 221 212 215 203 198 190 187 179 175 170 174 177 169 156 146 135 141 131 112 109 112 110 85 75 72 50 46 47 39 37 28 14 5
196 196 194 194 195 197 199 200 202 206 215 219 220 217 217 205 207 193 186 182 182 183 177 172 172 161 160 155 139 136 121 110 134 68 42 36 28 32 14 4 360 355 352
201 198 197 196 195 194 194 195 196 199 202 203 207 211 218 216 210 207 195 193 191 190 188 188 187 183 186 172 171 152 156 132 113 154 54 37 14 7 1 355 350 344 343
198 201 198 197 198 198 197 197 196 198 200 202 205 211 215 219 213 211 203 203 205 203 202 202 202 201 201 204 201 202 173 147 74 2 353 354 354 353 352 345 343 344 341
196 198 199 198 198 201 205 202 200 200 200 201 204 205 207 213 213 211 206 209 220 222 221 217 218 224 223 230 234 235 250 256 275 319 319 329 335 345 345 348 341 340 338
199 198 200 202 201 202 206 206 204 202 201 201 202 202 204 205 206 208 210 211 214 221 227 235 239 239 237 243 238 260 256 275 283 293 310 317 327 334 337 337 337 337 334
202 203 202 205 205 205 215 215 209 208 207 207 206 206 207 207 208 209 211 217 221 227 233 235 239 246 244 251 250 250 264 262 280 296 301 314 321 324 328 333 331 333 333
216 213 210 205 210 226 228 217 217 221 217 216 218 216 215 215 213 213 215 221 228 232 234 238 240 247 243 243 257 258 255 264 270 279 297 307 309 321 326 328 331 333 335
227 212 208 205 210 223 222 223 248 242 243 250 254 247 236 229 235 231 232 239 244 245 246 245 244 247 252 245 254 260 267 274 284 275 289 306 309 317 323 329 331 335 337
218 212 221 213 217 220 249 262 264 259 260 259 257 263 267 269 275 272 258 262 264 260 255 257 258 258 259 255 260 266 271 274 280 288 289 295 301 307 310 315 328 331 335
250 241 244 236 242 254 261 262 264 262 262 255 254 250 262 273 271 272 264 260 261 267 264 263 263 259 263 258 257 264 269 273 272 284 297 292 293 297 311 309 321 330 336
257 254 254 254 255 258 254 259 263 263 258 255 250 247 266 257 261 245 258 255 248 252 260 267 265 256 247 264 261 265 266 270 273 280 294 284 292 297 304 310 323 336 346
253 255 254 255 252 261 263 266 269 266 262 256 262 267 260 274 261 249 257 248 242 247 262 271 269 264 265 259 261 258 266 268 268 275 278 280 285 295 311 325 336 342 347
255 255 255 254 255 262 269 271 271 271 271 275 272 275 280 283 278 271 276 263 250 251 274 278 273 275 278 243 265 256 247 262 278 275 274 274 285 288 295 316 328 342 345
254 255 259 264 261 269 278 287 281 278 286 283 284 288 288 287 287 277 274 273 264 265 265 269 273 272 264 257 224 227 263 271 266 263 260 256 267 268 281 305 325 344 343
261 262 268 274 273 278 281 288 300 298 297 297 297 298 299 300 298 288 277 271 265 257 264 268 266 260 272 271 272 273 262 247 237 237 231 246 257 251 271 305 325 336 339
277 279 280 286 286 288 290 291 292 301 307 308 307 305 300 296 294 292 282 275 269 272 278 275 276 279 287 287 277 254 209 210 198 202 211 239 228 242 261 307 322 333 339
291 294 297 296 294 296 297 297 301 305 308 311 317 319 320 319 320 319 313 308 292 292 296 292 290 291 290 279 198 190 196 213 194 216 237 222 227 246 275 295 323 332 339
293 296 300 302 300 301 302 303 305 308 311 314 318 322 325 327 332 338 336 323 305 296 300 300 297 285 280 228 227 231 174 192 214 216 225 223 229 257 281 308 325 329 336
303 308 309 309 309 311 313 310 305 305 309 316 317 319 321 329 332 336 341 341 347 338 331 353 46 331 253 242 232 228 230 205 208 226 225 237 260 277 297 311 322 331 333
307 311 312 314 316 315 316 314 316 315 312 318 320 322 327 328 337 5 27 43 28 69 90 83 64 78 137 145 238 238 245 224 227 247 260 262 268 287 301 313 318 326 328
320 320 321 326 328 328 331 340 338 332 331 340 342 352 0 352 11 9 15 26 59 46 28 57 83 109 132 230 251 243 257 262 266 264 268 274 283 293 299 303 309 318 327
312 321 330 332 336 333 332 338 334 333 330 336 343 345 348 351 360 342 341 356 16 45 75 91 96 86 107 173 264 270 271 272 271 272 271 277 285 290 290 288 298 308 315
337 332 331 332 334 332 339 345 339 337 332 330 331 333 342 339 341 323 325 347 17 38 41 14 357 71 57 334 309 302 292 289 287 284 282 282 284 287 286 290 294 300 312
343 334 334 332 335 332 334 335 327 329 339 339 329 325 328 322 321 309 315 339 18 24 28 51 350 336 114 295 309 303 308 306 303 298 287 288 286 287 280 284 290 300 305
349 342 335 333 333 330 323 320 321 320 322 324 323 320 315 313 310 305 314 327 332 334 331 323 310 229 278 298 303 316 331 331 322 309 301 294 287 282 274 285 291 297 301